Regional Weather Roundup
Issued by NWS

Home | Current Version | Previous Version | Text Only | Print | Product List | Glossary Off
Versions: 1 2 3 4 5 6 7 8 9 10 11 12 13 14 15 16 17 18 19 20 21 22 23 24 25 26 27 28 29 30 31 32 33 34 35 36 37 38 39 40 41 42 43 44 45 46 47 48 49 50

000
ASUS43 KOAX 262002
RWRNE

WEATHER ROUNDUP FOR NEBRASKA
NATIONAL WEATHER SERVICE OMAHA NE
300 PM CDT SUN MAR 26 2017

NOTES: SATELLITE DATA IS BEING USED TO AUGMENT CLOUD COVER ABOVE
       12000 FEET.
       "FAIR" INDICATES FEW OR NO CLOUDS BELOW 12,000 FEET WITH NO
       SIGNIFICANT WEATHER AND/OR OBSTRUCTIONS TO VISIBILITY.

  * THESE STATIONS DO NOT REPORT WEATHER SUCH AS RAIN...SNOW OR FOG.

NEZ001>004-019>022-054>056-262100-
NEBRASKA PANHANDLE

CITY           SKY/WX    TMP DP  RH WIND       PRES   REMARKS
SCOTTSBLUFF    CLOUDY    54  34  46 N9        29.90S
ALLIANCE       MOSUNNY   55  34  45 VRB6      29.88F
CHADRON        CLOUDY    49  38  65 NE9       29.93S
KIMBALL        CLOUDY    49  36  59 NE8       29.91S
SIDNEY         CLOUDY    49  36  61 VRB5      29.90S
$$

NEZ057>060-069>072-079>082-262100-
SOUTHWEST NEBRASKA

CITY           SKY/WX    TMP DP  RH WIND       PRES   REMARKS
NORTH PLATTE   CLOUDY    53  41  63 NW5       29.87F
IMPERIAL       CLOUDY    53  42  66 CALM      29.87F
LEXINGTON      CLOUDY    48  41  76 N3        29.88F
MCCOOK         MOSUNNY   50  41  71 VRB3      29.88F
OGALLALA       CLOUDY    59  41  50 NW7       29.87F
$$

NEZ005>010-023>029-035>040-094-262100-
NORTH CENTRAL NEBRASKA

CITY           SKY/WX    TMP DP  RH WIND       PRES   REMARKS
VALENTINE      CLOUDY    51  36  56 E5        29.89R
AINSWORTH      CLOUDY    51  42  71 CALM      29.89S
BROKEN BOW     MOSUNNY   54  41  61 CALM      29.87F
O`NEILL        CLOUDY    44  43  99 CALM      29.92F
ORD            CLOUDY    49  40  71 CALM      29.89F
THEDFORD       CLOUDY    61  40  45 CALM      29.86F
$$

NEZ041-046>049-061>064-073>077-083>087-262100-
SOUTH CENTRAL NEBRASKA

CITY           SKY/WX    TMP DP  RH WIND       PRES   REMARKS
GRAND ISLAND   CLOUDY    50  44  80 VRB5      29.90F
AURORA         CLOUDY    47  44  89 NE6       29.90F
HASTINGS       CLOUDY    50  43  77 N7        29.90F
HEBRON         CLOUDY    48  43  82 N5        29.90F
HOLDREGE       CLOUDY    47  41  77 CALM      29.89S
KEARNEY *      CLOUDY    46  39  76 CALM      29.90F
YORK           CLOUDY    46  45  93 NE6       29.91S
$$

NEZ011>018-030>034-042>045-262100-
NORTHEAST NEBRASKA

CITY           SKY/WX    TMP DP  RH WIND       PRES   REMARKS
NORFOLK        CLOUDY    45  39  79 N6        29.90F
ALBION         CLOUDY    48  42  79 N6        29.90F
BLAIR          CLOUDY    47  42  82 N8        29.90F
FREMONT        CLOUDY    46  41  81 NW5       29.92F
TEKAMAH        CLOUDY    47  40  76 N8        29.91F
WAYNE          CLOUDY    44  42  91 N6        29.92S
$$

NEZ050>053-065>068-078-088>093-262100-
SOUTHEAST NEBRASKA

CITY           SKY/WX    TMP DP  RH WIND       PRES   REMARKS
LINCOLN        CLOUDY    46  42  86 N5        29.93F
OMAHA EPPLEY   CLOUDY    48  40  73 NW5       29.91F
BEATRICE       CLOUDY    47  43  86 NW3       29.91F
FALLS CITY     CLOUDY    47  41  80 CALM      29.92S
NEBRASKA CITY  CLOUDY    46  41  85 CALM      29.91F
PLATTSMOUTH    CLOUDY    47  40  76 W6        29.91S
$$

NEZ044-045-051>053-067-262100-
OMAHA AREA

CITY           SKY/WX    TMP DP  RH WIND       PRES   REMARKS
OMAHA EPPLEY   CLOUDY    48  40  73 NW5       29.91F
BLAIR          CLOUDY    47  42  82 N8        29.90F
FREMONT        CLOUDY    46  41  81 NW5       29.92F
MILLARD        CLOUDY    49  42  77 N6        29.91F
OFFUTT AFB     CLOUDY    48  40  75 VRB3      29.90F
PLATTSMOUTH    CLOUDY    47  40  76 W6        29.91S
WAHOO          CLOUDY    46  41  85 N7        29.91F
$$




USA.gov is the U.S. government's official web portal to all federal, state and local government web resources and services.